Terminal Aerodrome Forecast
Issued by NWS

Home | Current Version | Previous Version | Text Only | Print | Product List | Glossary On
Versions: 1 2 3 4 5 6 7 8 9 10 11 12
000
FTUS45 KRIW 290500
TAFJAC
TAF
KJAC 290525Z 2906/3006 34008KT P6SM VCSH SCT060 BKN100
     FM291500 VRB06KT P6SM VCSH SCT050 BKN090
     FM291900 32007KT P6SM VCTS SCT060CB BKN080
     FM300200 35008KT P6SM VCSH BKN100
     FM300500 36007KT P6SM SCT070 BKN150
      AMD LTD TO CLD VIS AND WIND=

USA.gov is the U.S. government's official web portal to all federal, state and local government web resources and services.